• En España
  • Lista de países
  • Para 7 días
  • Temperatura del agua
  • Mapa Satelital
  • El tiempo en el mapa
  • Informadores
  • user-avatar
    Iniciar sesión

    Tiempo cada hora Bruges

    Hoy, 17 Octubre, Miércoles

    Tiempo Temperatura Precipitaciones Viento Presión Humedad
    00:00 +14°C° 0 mm 3 mps 762 mmHg 84%
    01:00 +14°C° 0 mm 3 mps 762 mmHg 87%
    02:00 +14°C° 0 mm 3 mps 762 mmHg 89%
    03:00 +14°C° 0 mm 3 mps 762 mmHg 91%
    04:00 +14°C° 0 mm 2 mps 762 mmHg 92%
    05:00 +14°C° 0 mm 2 mps 763 mmHg 93%
    06:00 +14°C° 0 mm 2 mps 763 mmHg 93%
    07:00 +15°C° 0 mm 2 mps 763 mmHg 89%
    08:00 +16°C° 0 mm 2 mps 763 mmHg 84%
    09:00 +17°C° 0 mm 2 mps 763 mmHg 80%
    10:00 +18°C° 0 mm 2 mps 763 mmHg 76%
    11:00 +18°C° 0 mm 2 mps 763 mmHg 72%
    12:00 +19°C° 0 mm 2 mps 763 mmHg 68%
    13:00 +19°C° 0 mm 2 mps 763 mmHg 68%
    14:00 +19°C° 0 mm 2 mps 763 mmHg 68%
    15:00 +19°C° 0 mm 2 mps 763 mmHg 68%
    16:00 +17°C° 0 mm 2 mps 763 mmHg 72%
    17:00 +16°C° 0 mm 2 mps 764 mmHg 76%
    18:00 +15°C° 0 mm 2 mps 764 mmHg 81%
    19:00 +14°C° 0 mm 2 mps 764 mmHg 82%
    20:00 +14°C° 0 mm 2 mps 765 mmHg 83%
    21:00 +14°C° 0 mm 2 mps 765 mmHg 85%
    22:00 +13°C° 0 mm 2 mps 765 mmHg 86%
    23:00 +13°C° 0 mm 2 mps 765 mmHg 87%

    Mañana, 18 Octubre, Jueves

    Tiempo Temperatura Precipitaciones Viento Presión Humedad
    00:00 +12°C° 0 mm 3 mps 765 mmHg 88%
    01:00 +12°C° 0 mm 3 mps 766 mmHg 89%
    02:00 +12°C° 0 mm 3 mps 766 mmHg 90%
    03:00 +12°C° 0 mm 3 mps 766 mmHg 91%
    04:00 +12°C° 0 mm 4 mps 766 mmHg 92%
    05:00 +11°C° 0 mm 4 mps 766 mmHg 92%
    06:00 +11°C° 0 mm 4 mps 766 mmHg 93%
    07:00 +12°C° 0 mm 5 mps 766 mmHg 89%
    08:00 +14°C° 0 mm 5 mps 767 mmHg 84%
    09:00 +15°C° 0 mm 5 mps 767 mmHg 80%
    10:00 +16°C° 0 mm 5 mps 767 mmHg 76%
    11:00 +16°C° 0 mm 6 mps 767 mmHg 73%
    12:00 +17°C° 0 mm 6 mps 767 mmHg 69%
    13:00 +17°C° 0 mm 6 mps 767 mmHg 70%
    14:00 +16°C° 0 mm 6 mps 766 mmHg 70%
    15:00 +16°C° 0 mm 6 mps 766 mmHg 71%
    16:00 +16°C° 0 mm 5 mps 766 mmHg 72%
    17:00 +15°C° 0 mm 5 mps 767 mmHg 73%
    18:00 +15°C° 0 mm 5 mps 767 mmHg 74%
    19:00 +14°C° 0 mm 5 mps 767 mmHg 76%
    20:00 +14°C° 0 mm 4 mps 767 mmHg 78%
    21:00 +13°C° 0 mm 4 mps 768 mmHg 79%
    22:00 +13°C° 0 mm 4 mps 767 mmHg 82%
    23:00 +12°C° 0 mm 4 mps 767 mmHg 84%

    Pasado mañana, 19 Octubre, Viernes

    Tiempo Temperatura Precipitaciones Viento Presión Humedad
    00:00 +12°C° 0 mm 4 mps 767 mmHg 86%
    01:00 +11°C° 0 mm 4 mps 767 mmHg 88%
    02:00 +11°C° 0 mm 4 mps 767 mmHg 90%
    03:00 +10°C° 0 mm 4 mps 767 mmHg 92%
    04:00 +10°C° 0 mm 3 mps 767 mmHg 92%
    05:00 +10°C° 0 mm 3 mps 767 mmHg 92%
    06:00 +9°C° 0 mm 3 mps 767 mmHg 93%
    07:00 +11°C° 0 mm 3 mps 767 mmHg 88%
    08:00 +12°C° 0 mm 4 mps 768 mmHg 83%
    09:00 +13°C° 0 mm 4 mps 768 mmHg 79%
    10:00 +14°C° 0 mm 3 mps 768 mmHg 75%
    11:00 +16°C° 0 mm 3 mps 768 mmHg 70%
    12:00 +18°C° 0 mm 3 mps 767 mmHg 66%
    13:00 +18°C° 0 mm 3 mps 767 mmHg 66%
    14:00 +18°C° 0 mm 3 mps 767 mmHg 66%
    15:00 +18°C° 0 mm 3 mps 767 mmHg 66%
    16:00 +17°C° 0 mm 4 mps 768 mmHg 71%
    17:00 +14°C° 0 mm 4 mps 768 mmHg 75%
    18:00 +13°C° 0 mm 4 mps 768 mmHg 80%
    19:00 +13°C° 0 mm 4 mps 769 mmHg 80%
    20:00 +12°C° 0 mm 4 mps 769 mmHg 81%
    21:00 +12°C° 0 mm 4 mps 769 mmHg 81%
    22:00 +11°C° 0 mm 4 mps 769 mmHg 80%
    23:00 +11°C° 0 mm 4 mps 770 mmHg 79%

    20 Octubre, Sábado

    Tiempo Temperatura Precipitaciones Viento Presión Humedad
    00:00 +10°C° 0 mm 3 mps 770 mmHg 79%
    01:00 +10°C° 0 mm 3 mps 770 mmHg 79%
    02:00 +10°C° 0 mm 3 mps 770 mmHg 79%
    03:00 +8°C° 0 mm 4 mps 771 mmHg 79%
    04:00 +9°C° 0 mm 3 mps 771 mmHg 79%
    05:00 +8°C° 0 mm 3 mps 771 mmHg 79%
    06:00 +8°C° 0 mm 3 mps 771 mmHg 79%
    07:00 +8°C° 0 mm 4 mps 772 mmHg 74%
    08:00 +10°C° 0 mm 4 mps 772 mmHg 69%
    09:00 +12°C° 0 mm 4 mps 773 mmHg 64%
    10:00 +13°C° 0 mm 4 mps 773 mmHg 60%
    11:00 +14°C° 0 mm 4 mps 773 mmHg 55%
    12:00 +16°C° 0 mm 3 mps 773 mmHg 50%
    13:00 +16°C° 0 mm 3 mps 772 mmHg 50%
    14:00 +16°C° 0 mm 3 mps 772 mmHg 51%
    15:00 +16°C° 0 mm 3 mps 772 mmHg 51%
    16:00 +14°C° 0 mm 3 mps 772 mmHg 55%
    17:00 +13°C° 0 mm 3 mps 772 mmHg 58%
    18:00 +11°C° 0 mm 3 mps 772 mmHg 62%
    19:00 +10°C° 0 mm 3 mps 772 mmHg 63%
    20:00 +10°C° 0 mm 3 mps 772 mmHg 64%
    21:00 +9°C° 0 mm 3 mps 773 mmHg 65%
    22:00 +9°C° 0 mm 3 mps 772 mmHg 66%
    23:00 +8°C° 0 mm 2 mps 772 mmHg 67%

    21 Octubre, Domingo

    Tiempo Temperatura Precipitaciones Viento Presión Humedad
    00:00 +8°C° 0 mm 2 mps 772 mmHg 69%
    01:00 +7°C° 0 mm 2 mps 772 mmHg 70%
    02:00 +7°C° 0 mm 2 mps 772 mmHg 71%
    03:00 +7°C° 0 mm 2 mps 772 mmHg 73%
    04:00 +7°C° 0 mm 2 mps 771 mmHg 74%
    05:00 +7°C° 0 mm 1 mps 771 mmHg 74%
    06:00 +7°C° 0 mm 1 mps 771 mmHg 75%
    07:00 +9°C° 0 mm 1 mps 771 mmHg 70%
    08:00 +10°C° 0 mm 1 mps 771 mmHg 65%
    09:00 +12°C° 0 mm 1 mps 771 mmHg 60%
    10:00 +13°C° 0 mm 1 mps 771 mmHg 55%
    11:00 +15°C° 0 mm 1 mps 771 mmHg 51%
    12:00 +16°C° 0 mm 1 mps 770 mmHg 46%
    13:00 +18°C° 0 mm 1 mps 770 mmHg 47%
    14:00 +17°C° 0 mm 2 mps 770 mmHg 48%
    15:00 +17°C° 0 mm 2 mps 769 mmHg 48%
    16:00 +15°C° 0 mm 2 mps 770 mmHg 53%
    17:00 +13°C° 0 mm 3 mps 770 mmHg 59%
    18:00 +11°C° 0 mm 3 mps 770 mmHg 64%
    19:00 +11°C° 0 mm 3 mps 770 mmHg 68%
    20:00 +11°C° 0 mm 4 mps 771 mmHg 72%
    21:00 +10°C° 0 mm 5 mps 771 mmHg 77%
    22:00 +11°C° 0.1 mm 6 mps 771 mmHg 79%
    23:00 +13°C° 0.1 mm 6 mps 772 mmHg 82%

    22 Octubre, Lunes

    Tiempo Temperatura Precipitaciones Viento Presión Humedad
    00:00 +12°C° 0.1 mm 7 mps 772 mmHg 85%
    01:00 +12°C° 0 mm 7 mps 772 mmHg 82%
    02:00 +12°C° 0 mm 8 mps 773 mmHg 79%
    03:00 +12°C° 0 mm 8 mps 773 mmHg 75%
    04:00 +11°C° 0 mm 7 mps 773 mmHg 76%
    05:00 +10°C° 0 mm 7 mps 774 mmHg 76%
    06:00 +9°C° 0 mm 6 mps 774 mmHg 77%
    07:00 +10°C° 0 mm 6 mps 775 mmHg 72%
    08:00 +11°C° 0 mm 6 mps 775 mmHg 68%
    09:00 +11°C° 0 mm 6 mps 776 mmHg 64%
    10:00 +11°C° 0 mm 6 mps 776 mmHg 62%
    11:00 +13°C° 0 mm 5 mps 776 mmHg 60%
    12:00 +13°C° 0 mm 5 mps 776 mmHg 58%
    13:00 +13°C° 0 mm 5 mps 776 mmHg 59%
    14:00 +12°C° 0 mm 5 mps 776 mmHg 60%
    15:00 +12°C° 0 mm 5 mps 776 mmHg 61%
    16:00 +10°C° 0 mm 5 mps 776 mmHg 64%
    17:00 +10°C° 0 mm 5 mps 776 mmHg 66%
    18:00 +10°C° 0 mm 4 mps 777 mmHg 69%
    19:00 +10°C° 0 mm 4 mps 777 mmHg 69%
    20:00 +10°C° 0 mm 4 mps 777 mmHg 68%
    21:00 +10°C° 0 mm 4 mps 777 mmHg 67%
    22:00 +10°C° 0 mm 4 mps 777 mmHg 68%
    23:00 +10°C° 0 mm 4 mps 776 mmHg 68%
    Mostrar más